Total_Precipitation_Accumulation
0.28 0.33 0.42 0.55 0.49 0.35 0.15 0.05 0.01 0.02 0.04 0.04 0.05 0.05 0.06 0.09 0.13 0.18 0.15 0.16 0.16 0.18 0.25 0.42 0.59 0.59 0.53 0.47 0.42 0.39 0.38 0.40 0.44 0.47 0.48 0.45 0.43 0.44 0.51 0.53 0.50 0.50 0.54 0.63 0.71 0.70 0.66 0.58 0.40
0.33 0.48 0.67 0.76 0.52 0.32 0.16 0.05 0.02 0.02 0.04 0.04 0.05 0.06 0.09 0.12 0.14 0.15 0.16 0.23 0.26 0.25 0.30 0.42 0.59 0.63 0.61 0.53 0.44 0.43 0.45 0.46 0.52 0.56 0.56 0.58 0.56 0.54 0.53 0.56 0.52 0.48 0.49 0.55 0.57 0.48 0.42 0.37 0.26
0.53 0.74 0.92 0.84 0.58 0.31 0.16 0.06 0.03 0.03 0.04 0.05 0.06 0.10 0.17 0.19 0.18 0.20 0.22 0.28 0.36 0.38 0.39 0.53 0.68 0.73 0.72 0.63 0.53 0.49 0.51 0.53 0.56 0.62 0.67 0.70 0.72 0.66 0.58 0.54 0.50 0.46 0.41 0.38 0.34 0.32 0.27 0.24 0.20
0.84 1.09 1.12 0.90 0.52 0.24 0.12 0.10 0.06 0.06 0.05 0.05 0.08 0.14 0.21 0.20 0.24 0.26 0.31 0.37 0.40 0.51 0.56 0.71 0.87 0.92 0.90 0.77 0.67 0.62 0.61 0.61 0.63 0.64 0.69 0.77 0.84 0.81 0.70 0.56 0.43 0.38 0.34 0.30 0.26 0.24 0.23 0.19 0.16
1.14 1.28 1.16 0.83 0.40 0.19 0.10 0.10 0.09 0.08 0.08 0.09 0.11 0.16 0.27 0.25 0.32 0.44 0.45 0.47 0.46 0.53 0.65 0.82 1.03 1.08 1.06 0.95 0.87 0.84 0.79 0.76 0.74 0.71 0.75 0.80 0.81 0.76 0.69 0.51 0.38 0.32 0.32 0.31 0.26 0.23 0.23 0.21 0.17
1.34 1.39 1.12 0.68 0.32 0.16 0.10 0.10 0.13 0.13 0.12 0.15 0.19 0.26 0.37 0.41 0.50 0.61 0.64 0.61 0.55 0.56 0.73 0.92 1.17 1.19 1.15 1.09 1.00 0.97 0.97 0.93 0.89 0.85 0.85 0.87 0.84 0.75 0.64 0.52 0.43 0.35 0.33 0.34 0.30 0.26 0.24 0.24 0.21
1.30 1.26 0.91 0.50 0.29 0.19 0.13 0.13 0.17 0.18 0.17 0.19 0.23 0.33 0.49 0.63 0.78 0.81 0.86 0.88 0.83 0.80 0.90 1.05 1.25 1.32 1.30 1.20 1.08 1.02 1.03 1.05 1.03 0.97 0.90 0.82 0.76 0.73 0.63 0.53 0.47 0.42 0.38 0.37 0.32 0.30 0.27 0.27 0.26
1.27 1.43 0.86 0.50 0.32 0.24 0.16 0.15 0.18 0.23 0.24 0.21 0.28 0.39 0.53 0.74 0.99 1.12 1.20 1.27 1.21 1.15 1.20 1.29 1.37 1.37 1.34 1.26 1.15 1.10 1.08 1.10 1.15 1.08 0.89 0.77 0.69 0.67 0.63 0.51 0.46 0.42 0.41 0.39 0.34 0.30 0.28 0.28 0.25
1.21 1.57 0.95 0.48 0.40 0.29 0.24 0.22 0.23 0.27 0.34 0.30 0.31 0.40 0.57 0.83 1.21 1.43 1.66 1.68 1.63 1.59 1.51 1.54 1.55 1.53 1.49 1.41 1.26 1.22 1.14 1.11 1.13 1.09 0.91 0.80 0.76 0.68 0.60 0.47 0.39 0.38 0.38 0.37 0.37 0.34 0.29 0.25 0.21
1.20 1.30 0.86 0.51 0.45 0.41 0.39 0.36 0.37 0.42 0.48 0.45 0.42 0.57 0.81 1.18 1.56 1.73 1.71 1.75 1.74 1.86 1.75 1.65 1.63 1.57 1.58 1.54 1.43 1.39 1.24 1.12 1.08 0.97 0.92 0.87 0.79 0.69 0.56 0.50 0.43 0.39 0.36 0.37 0.40 0.40 0.35 0.27 0.19
0.87 0.78 0.66 0.59 0.51 0.52 0.52 0.49 0.44 0.52 0.52 0.49 0.43 0.58 0.92 1.41 1.80 2.07 2.14 1.94 1.91 2.00 1.99 1.91 1.83 1.72 1.61 1.65 1.52 1.44 1.35 1.21 1.13 1.00 0.97 0.94 0.91 0.81 0.73 0.64 0.62 0.56 0.45 0.44 0.42 0.44 0.35 0.24 0.18
0.66 0.53 0.60 0.69 0.60 0.58 0.59 0.59 0.53 0.56 0.55 0.51 0.52 0.62 0.92 1.35 1.80 2.09 2.38 2.26 2.25 2.22 2.15 2.14 2.05 1.98 1.80 1.69 1.62 1.55 1.43 1.31 1.17 1.02 0.97 0.97 0.90 0.81 0.73 0.61 0.60 0.61 0.49 0.46 0.44 0.38 0.31 0.26 0.20
0.56 0.55 0.59 0.69 0.68 0.60 0.59 0.60 0.61 0.60 0.61 0.63 0.69 0.83 1.02 1.36 1.84 2.19 2.58 2.68 2.59 2.50 2.45 2.37 2.20 2.13 2.04 1.83 1.66 1.62 1.58 1.47 1.32 1.23 1.09 0.99 0.89 0.74 0.67 0.61 0.61 0.59 0.52 0.46 0.44 0.38 0.34 0.32 0.27
0.48 0.56 0.63 0.70 0.72 0.63 0.63 0.58 0.62 0.63 0.69 0.78 0.79 0.88 1.06 1.39 1.79 2.19 2.59 2.80 2.62 2.67 2.75 2.68 2.48 2.26 2.17 1.98 1.70 1.60 1.67 1.63 1.57 1.42 1.22 1.17 1.05 0.89 0.75 0.68 0.65 0.61 0.56 0.52 0.48 0.42 0.41 0.38 0.35
0.53 0.66 0.72 0.71 0.70 0.67 0.70 0.73 0.62 0.61 0.76 0.84 0.82 0.90 1.01 1.28 1.70 2.06 2.34 2.55 2.59 2.60 2.82 2.88 2.75 2.57 2.35 2.19 1.96 1.70 1.75 1.78 1.72 1.55 1.38 1.32 1.27 1.14 0.97 0.83 0.72 0.62 0.60 0.60 0.61 0.60 0.54 0.47 0.42
0.84 0.91 0.84 0.65 0.66 0.65 0.79 0.82 0.60 0.60 0.72 0.81 0.85 0.90 0.98 1.11 1.53 1.95 2.18 2.41 2.62 2.60 2.68 2.90 2.90 2.83 2.67 2.47 2.23 1.91 1.79 1.82 1.76 1.61 1.46 1.37 1.33 1.27 1.18 1.01 0.86 0.76 0.73 0.72 0.69 0.68 0.64 0.55 0.48
1.17 0.96 0.65 0.57 0.60 0.65 0.71 0.76 0.61 0.56 0.67 0.75 0.83 0.87 0.92 1.00 1.27 1.74 2.06 2.23 2.52 2.57 2.63 2.79 2.89 2.92 2.98 2.89 2.70 2.34 2.01 1.96 1.91 1.77 1.55 1.44 1.39 1.33 1.27 1.15 1.01 0.97 0.90 0.80 0.74 0.71 0.66 0.63 0.58
0.84 0.62 0.49 0.54 0.56 0.55 0.58 0.67 0.66 0.64 0.69 0.72 0.81 0.89 0.91 0.95 1.06 1.40 1.88 2.07 2.53 2.76 2.83 2.83 2.95 3.13 3.29 3.38 3.19 2.93 2.47 2.17 2.03 1.88 1.70 1.55 1.46 1.41 1.36 1.30 1.21 1.13 1.11 1.02 0.89 0.80 0.75 0.70 0.65
0.62 0.54 0.47 0.46 0.45 0.53 0.55 0.63 0.70 0.69 0.66 0.71 0.81 0.88 0.91 0.91 1.01 1.29 1.71 1.98 2.39 2.82 2.97 3.00 2.94 3.11 3.41 3.35 3.13 2.85 2.56 2.33 2.11 1.97 1.84 1.71 1.59 1.49 1.40 1.29 1.32 1.31 1.24 1.18 1.11 1.05 0.99 0.91 0.88
0.77 0.70 0.55 0.50 0.47 0.57 0.57 0.61 0.61 0.63 0.62 0.64 0.72 0.79 0.81 0.79 0.91 1.20 1.48 1.79 2.02 2.59 2.91 2.94 3.01 3.14 3.33 3.27 3.16 3.07 2.92 2.69 2.45 2.28 1.99 1.80 1.67 1.55 1.49 1.37 1.27 1.32 1.35 1.27 1.22 1.22 1.21 1.17 1.14
0.84 0.72 0.57 0.57 0.64 0.61 0.58 0.63 0.53 0.52 0.53 0.54 0.66 0.73 0.73 0.73 0.87 1.07 1.26 1.52 1.68 2.06 2.51 2.70 2.74 2.94 3.11 3.32 3.61 3.60 3.42 3.03 2.55 2.25 2.09 1.93 1.89 1.79 1.63 1.59 1.50 1.36 1.38 1.33 1.24 1.16 1.16 1.19 1.21
0.85 0.56 0.56 0.60 0.76 0.77 0.60 0.78 0.53 0.46 0.49 0.51 0.62 0.70 0.71 0.70 0.80 0.97 1.11 1.23 1.42 1.66 2.05 2.43 2.62 2.73 2.79 2.92 3.24 3.39 3.25 2.86 2.47 2.21 2.18 2.19 2.10 2.07 1.98 1.83 1.75 1.61 1.51 1.45 1.41 1.36 1.27 1.25 1.25
0.77 0.52 0.62 0.71 0.82 0.83 0.56 0.68 0.55 0.44 0.51 0.53 0.60 0.68 0.71 0.74 0.84 0.95 1.02 1.04 1.16 1.40 1.77 2.11 2.37 2.58 2.61 2.57 2.73 3.00 3.15 3.04 2.85 2.58 2.40 2.30 2.22 2.11 2.07 2.00 1.93 1.79 1.67 1.62 1.63 1.57 1.51 1.46 1.38
0.83 0.85 0.97 1.08 1.36 1.34 0.54 0.54 0.52 0.49 0.58 0.57 0.57 0.68 0.75 0.82 0.88 0.93 0.97 0.99 1.04 1.18 1.44 1.73 2.01 2.33 2.51 2.47 2.55 2.66 2.74 2.90 2.85 2.59 2.50 2.39 2.37 2.25 2.10 2.00 1.96 1.91 1.84 1.77 1.76 1.77 1.69 1.59 1.53
1.28 1.74 2.21 2.18 1.95 1.11 0.32 0.39 0.55 0.47 0.51 0.54 0.57 0.65 0.71 0.73 0.77 0.79 0.80 0.85 0.97 1.08 1.21 1.44 1.57 1.84 2.14 2.27 2.33 2.39 2.47 2.56 2.67 2.62 2.51 2.46 2.32 2.21 2.15 2.04 2.00 1.99 1.88 1.84 1.82 1.79 1.72 1.67 1.61
1.31 1.55 1.72 1.51 0.98 0.50 0.28 0.44 0.54 0.43 0.43 0.47 0.52 0.59 0.70 0.76 0.78 0.79 0.77 0.82 0.97 1.03 1.11 1.26 1.38 1.51 1.76 1.98 2.02 2.07 2.22 2.30 2.30 2.38 2.34 2.30 2.23 2.15 2.17 2.15 2.03 1.99 1.95 1.85 1.79 1.75 1.66 1.63 1.61
1.26 1.18 0.93 1.19 0.86 0.60 0.43 0.39 0.41 0.37 0.40 0.43 0.45 0.51 0.64 0.72 0.73 0.79 0.82 0.86 0.92 0.97 1.03 1.14 1.25 1.28 1.41 1.66 1.79 1.86 1.92 1.94 1.88 1.91 1.93 1.96 2.00 2.01 2.02 2.04 1.94 1.86 1.83 1.78 1.74 1.69 1.60 1.54 1.50
1.12 0.99 1.07 1.45 1.24 0.87 0.48 0.38 0.53 0.48 0.46 0.45 0.46 0.49 0.58 0.67 0.73 0.79 0.83 0.81 0.82 0.87 0.94 1.05 1.09 1.10 1.15 1.29 1.42 1.59 1.67 1.66 1.68 1.67 1.63 1.62 1.61 1.65 1.72 1.77 1.76 1.69 1.66 1.63 1.61 1.55 1.52 1.50 1.41
0.93 1.08 1.19 1.19 0.98 1.00 0.69 0.54 0.53 0.51 0.50 0.51 0.55 0.56 0.61 0.66 0.76 0.83 0.88 0.85 0.83 0.87 0.92 0.99 0.98 0.99 1.02 1.09 1.16 1.25 1.38 1.45 1.49 1.47 1.37 1.37 1.34 1.33 1.37 1.37 1.39 1.43 1.44 1.45 1.43 1.40 1.40 1.40 1.36
0.74 0.80 0.98 1.32 1.01 0.78 0.74 0.58 0.41 0.43 0.46 0.50 0.59 0.59 0.59 0.62 0.69 0.77 0.85 0.84 0.86 0.90 0.94 0.98 0.95 0.96 0.96 1.01 1.02 1.06 1.15 1.28 1.33 1.36 1.28 1.19 1.21 1.16 1.17 1.17 1.14 1.13 1.15 1.19 1.21 1.19 1.20 1.24 1.23